This is the latest recevied weather packets stored in our database for station/object KC5DAQ-25. If no packets are shown the sender has not sent any weather packets the latest 10 day(s).
| Time | Temp. | Humidity | Pressure | Rain* | Wind** | Luminosity | Snow |
|---|---|---|---|---|---|---|---|
| 1777384205 | 25.56° C | 86% | 1005 hPa | 0 mm | - | 200 W/m² | - |
| 1777384143 | 25.56° C | 86% | 1005 hPa | 0 mm | - | 200 W/m² | - |
| 1777384083 | 25.56° C | 87% | 1005 hPa | 0 mm | - | 218 W/m² | - |
| 1777384063 | 25° C | 88% | 1004.9 hPa | 0 mm | - | 216 W/m² | - |
| 1777384058 | 25° C | 87% | 1004.9 hPa | 0 mm | - | 241 W/m² | - |
| 1777384053 | 25° C | 88% | 1005.1 hPa | 0 mm | - | 216 W/m² | - |
| 1777384049 | 25° C | 88% | 1004.9 hPa | 0 mm | - | 216 W/m² | - |
| 1777384042 | 25° C | 87% | 1005 hPa | 0 mm | - | 252 W/m² | - |
| 1777384038 | 25° C | 87% | 1005 hPa | 0 mm | - | 237 W/m² | - |
| 1777384031 | 25.56° C | 87% | 1005 hPa | 0 mm | - | 237 W/m² | - |
| 1777384025 | 25° C | 87% | 1005 hPa | 0 mm | - | 252 W/m² | - |
| 1777384001 | 25° C | 87% | 1005 hPa | 0 mm | - | 237 W/m² | - |
| 1777383474 | 25° C | 88% | 1004.9 hPa | 0 mm | - | 216 W/m² | - |
| 1777383406 | 25° C | 88% | 1004.9 hPa | 0 mm | - | 167 W/m² | - |
| 1777383335 | 25° C | 88% | 1004.8 hPa | 0 mm | - | 167 W/m² | - |
| 1777383272 | 25° C | 88% | 1004.8 hPa | 0 mm | - | 167 W/m² | - |
| 1777383244 | 24.44° C | 88% | 1004.7 hPa | 0 mm | - | 79 W/m² | - |
| 1777383237 | 24.44° C | 88% | 1004.7 hPa | 0 mm | - | 83 W/m² | - |
| 1777383233 | 24.44° C | 88% | 1004.6 hPa | 0 mm | - | 83 W/m² | - |
| 1777383226 | 24.44° C | 88% | 1004.7 hPa | 0 mm | - | 155 W/m² | - |
| 1777383222 | 24.44° C | 88% | 1004.7 hPa | 0 mm | - | 155 W/m² | - |
| 1777383215 | 24.44° C | 88% | 1004.7 hPa | 0 mm | - | 121 W/m² | - |
| 1777383211 | 25° C | 88% | 1004.8 hPa | 0 mm | - | 167 W/m² | - |
| 1777383206 | 24.44° C | 88% | 1004.7 hPa | 0 mm | - | 167 W/m² | - |
| 1777383200 | 24.44° C | 88% | 1004.7 hPa | 0 mm | - | 167 W/m² | - |
* Rain latest hour (hover to see other rain measurements)
** Current wind speed in m/s (hover to see current wind gust speed)